Wind_Speed
7 7 8 8 8 9 10 10 11 11 11 11 10 10 10 10 10 10 10 11 11 11 12 13 13 14 14 14 14 14 14 13 13 13 13 14 15 16 17 17 17 18 19 19
8 8 8 8 9 10 11 11 12 12 11 10 10 10 11 11 11 11 11 11 12 12 13 14 14 14 14 14 14 14 13 12 12 13 14 14 15 16 16 17 17 17 18 19
8 7 8 9 10 11 11 11 11 11 11 10 11 11 12 12 12 12 11 11 12 12 13 14 14 14 13 13 13 12 12 12 12 13 14 14 15 16 16 17 17 18 18 19
9 9 9 9 10 11 11 11 11 11 11 11 12 12 12 12 12 11 12 11 11 11 12 13 13 13 13 13 12 11 11 12 12 13 14 14 15 16 16 17 17 18 19 19
12 12 11 10 10 10 10 10 11 12 13 13 12 12 12 12 12 12 11 11 11 11 11 12 12 13 12 12 11 11 12 13 13 13 14 15 15 15 16 16 17 18 19 20
13 13 12 11 11 11 11 10 11 12 13 13 13 13 12 12 12 11 11 11 11 11 11 12 12 12 11 11 10 11 11 12 12 13 14 14 15 15 15 16 17 18 20 22
13 13 12 12 12 12 11 11 12 12 13 13 13 12 12 12 12 11 11 12 12 12 12 12 13 13 12 11 11 11 11 12 12 13 13 14 15 15 16 16 17 19 20 22
15 15 14 14 13 12 11 11 12 13 13 13 13 13 13 12 13 13 13 13 12 13 13 13 12 12 12 12 11 11 11 12 12 12 12 14 15 15 16 17 17 19 21 22
15 16 16 15 14 14 13 14 14 14 13 13 13 13 13 12 13 13 13 13 13 13 13 13 13 12 12 12 12 12 11 11 11 12 12 13 14 15 16 18 19 20 22 22
16 16 17 17 16 15 15 16 16 15 14 15 14 13 12 12 13 13 13 13 13 14 14 13 12 12 11 11 11 12 12 11 11 12 12 13 13 15 17 18 19 20 22 22
17 18 18 18 17 16 16 17 16 15 15 15 14 13 13 13 13 13 13 13 13 14 13 12 11 11 11 11 11 11 11 10 11 11 12 12 14 15 17 18 19 20 21 22
18 18 18 17 17 17 16 16 15 15 15 15 14 14 14 14 13 14 14 13 13 13 13 12 11 11 11 11 11 11 11 11 11 12 12 12 14 15 17 18 19 20 21 22
20 19 19 18 18 17 17 16 15 15 15 15 15 15 15 15 14 14 14 14 14 14 13 12 12 11 10 10 10 9 10 11 11 11 11 12 13 15 16 17 18 19 20 21
20 20 20 20 19 19 18 17 16 16 15 15 16 16 15 15 15 15 15 15 14 13 12 11 10 10 10 10 9 9 9 10 11 11 11 12 13 14 15 16 16 17 19 21
20 20 20 20 19 19 19 18 17 16 16 16 17 16 15 15 15 15 15 14 13 12 11 10 10 9 9 9 9 10 10 11 12 12 12 13 13 14 14 15 16 17 19 20
21 22 22 21 21 20 20 19 19 18 18 18 17 16 16 16 16 16 15 14 13 12 11 10 9 9 9 9 10 10 11 11 11 12 12 12 12 13 13 14 15 16 18 19
23 23 23 23 23 22 22 21 20 19 19 18 18 17 17 17 17 16 15 14 13 12 11 10 9 9 9 10 10 10 11 10 10 11 11 11 11 11 12 13 15 16 18 19
24 24 24 24 23 22 22 21 20 20 20 19 19 18 18 18 17 16 15 14 12 12 11 10 10 10 9 10 11 11 10 10 10 10 10 10 10 10 11 13 15 16 18 19
24 24 24 24 24 23 22 21 21 20 20 20 19 19 18 17 16 15 14 13 12 11 11 10 10 10 9 10 10 10 10 10 10 10 10 10 10 11 13 14 15 17 17 19
23 23 23 23 23 23 22 22 21 21 20 19 19 18 17 16 15 15 14 13 12 11 11 10 10 10 10 9 9 9 9 9 10 10 10 10 11 12 13 14 15 16 17 18
23 23 23 23 23 23 22 21 21 21 20 19 19 18 17 16 16 15 14 13 12 11 10 10 10 10 10 9 8 8 8 9 9 9 10 11 11 12 12 14 14 15 16 18
24 23 23 22 23 22 22 22 22 21 20 19 18 18 17 17 17 16 15 14 13 12 11 10 10 9 9 9 8 9 9 9 9 9 9 10 11 11 12 13 15 15 16 17
24 24 23 23 23 22 22 22 22 21 20 19 18 17 17 17 16 16 15 14 13 13 12 11 11 10 10 9 9 9 9 9 10 10 10 11 11 12 13 14 14 15 15 16
24 23 24 24 23 23 22 21 21 20 19 19 18 17 17 16 16 16 15 14 14 13 12 12 11 10 10 9 9 8 9 9 9 10 10 11 12 12 13 14 14 14 14 15
25 24 23 23 23 23 23 21 20 20 19 18 17 17 17 16 16 16 16 15 14 13 13 12 11 10 10 10 9 9 9 9 9 10 10 11 12 12 12 13 13 14 14 15
25 24 24 24 23 24 24 23 21 20 20 19 18 18 17 17 17 16 16 16 15 14 13 12 11 11 11 11 11 10 10 9 9 9 10 11 12 12 12 12 13 13 14 15
25 25 25 25 24 23 23 22 22 21 20 19 18 18 18 17 17 17 16 16 15 15 14 13 12 12 11 12 12 12 11 11 11 11 11 12 12 12 12 12 13 13 14 14
Wind_Direction
311 319 324 323 322 319 316 317 315 314 309 309 314 321 321 318 315 314 315 312 310 311 315 319 319 319 320 319 318 318 322 326 327 326 324 324 322 323 325 324 321 320 319 319
304 307 314 319 325 320 318 318 316 314 312 308 307 312 313 314 314 313 311 309 306 308 311 313 314 317 318 318 316 315 318 323 327 327 326 328 329 328 328 328 326 325 326 325
299 300 307 313 323 324 323 322 319 315 314 311 309 310 310 312 313 311 309 307 308 310 312 312 313 316 318 318 317 316 318 320 323 327 328 329 331 331 332 332 331 331 330 329
301 301 306 318 320 318 317 319 317 316 315 312 308 310 311 311 312 310 306 304 305 307 315 316 314 316 317 318 319 320 321 323 323 329 332 330 331 333 334 335 336 336 335 333
295 301 307 311 315 315 313 314 313 314 314 313 312 311 311 309 308 310 308 304 305 309 312 318 320 319 316 315 317 320 322 322 326 331 334 334 334 335 337 338 337 338 339 336
290 297 303 307 311 314 313 313 314 314 314 313 312 311 310 310 308 307 311 310 309 310 311 315 317 316 315 315 318 321 322 323 325 328 330 334 336 337 338 337 337 338 339 338
286 293 300 306 310 314 316 317 315 316 316 314 312 311 309 308 308 305 307 307 308 309 308 310 312 312 313 314 317 321 321 322 324 325 327 332 336 337 337 339 340 341 342 342
286 289 293 298 304 308 311 313 314 314 312 313 312 311 306 304 303 301 303 303 304 304 304 305 308 310 310 310 312 316 318 319 323 325 329 333 335 336 338 342 344 344 344 344
287 287 289 294 300 303 302 304 306 307 307 311 315 315 310 305 304 304 304 301 300 301 301 302 304 307 307 308 310 312 314 317 320 324 328 331 334 337 339 342 344 345 344 344
282 282 285 290 295 299 300 303 304 303 304 307 309 312 310 309 308 306 301 300 299 299 299 300 302 303 304 306 308 311 311 313 317 321 325 327 331 335 337 339 344 346 346 347
277 280 282 285 290 295 296 298 298 299 300 303 305 306 305 306 307 306 304 300 299 299 300 300 300 300 301 302 303 308 311 312 315 318 322 326 329 333 335 338 342 345 347 349
279 280 280 282 287 292 295 296 294 296 298 299 300 300 300 302 304 305 304 303 301 299 298 296 296 295 295 297 299 304 308 312 313 315 319 324 327 330 334 338 341 343 345 347
276 277 279 280 282 284 288 290 290 291 294 296 296 295 297 298 300 301 302 302 301 300 298 295 295 293 292 295 297 302 304 310 312 316 319 321 325 329 333 337 340 342 345 346
271 274 277 279 280 281 283 283 283 283 285 288 290 292 294 295 296 297 300 300 300 299 298 296 296 293 291 293 296 300 305 308 311 313 316 320 325 329 332 336 340 344 347 349
269 272 276 277 277 278 278 276 276 278 281 284 288 290 290 291 293 295 297 297 296 296 295 294 293 292 292 295 298 303 307 307 308 309 313 318 323 327 331 335 339 344 346 348
269 271 274 276 275 276 275 273 273 274 275 278 282 285 286 288 291 292 291 292 292 293 293 294 294 292 293 295 300 304 307 307 307 308 313 316 320 325 330 337 342 345 348 349
268 270 272 273 272 272 273 272 272 272 272 274 276 279 283 285 288 287 286 287 286 285 286 288 288 291 294 298 304 307 308 308 307 307 310 313 320 326 332 338 343 345 347 349
268 268 269 271 271 270 271 271 270 270 268 270 272 274 278 281 282 282 282 282 282 280 280 281 285 289 294 300 303 305 307 310 310 309 310 313 318 323 332 338 341 342 344 346
268 268 267 267 268 267 268 269 268 267 269 269 270 272 274 276 278 279 280 278 275 275 276 279 283 286 290 296 299 301 304 310 314 316 316 317 319 320 327 334 337 340 341 343
263 264 264 265 267 266 266 266 265 265 268 269 268 269 270 271 273 275 275 274 272 272 273 275 279 283 286 290 295 301 304 307 311 314 315 316 319 321 325 330 334 337 340 343
259 260 261 263 264 263 263 263 262 264 266 267 268 268 268 268 269 270 269 267 268 269 270 271 274 278 283 288 293 298 301 307 312 312 312 314 318 321 324 329 333 336 338 341
258 258 258 259 260 260 260 260 260 261 263 264 266 266 265 265 267 266 264 262 263 264 266 267 270 274 281 287 291 294 297 306 313 311 312 317 320 322 325 328 330 334 336 340
256 256 257 259 258 258 258 259 258 258 260 262 263 262 262 262 262 260 259 260 260 260 259 262 268 274 279 283 288 289 291 299 305 309 313 317 322 326 328 329 331 335 340 343
255 256 255 255 255 255 257 257 256 256 258 259 257 257 257 257 256 255 255 258 258 257 258 260 264 269 272 277 282 282 284 290 295 302 310 316 321 324 327 330 332 335 338 341
254 255 255 254 254 254 254 253 253 252 253 255 253 251 252 253 252 251 253 255 255 254 256 258 262 267 270 273 275 275 279 283 288 298 306 312 317 319 323 328 332 334 336 340
253 253 254 255 256 256 254 253 251 249 248 248 248 248 249 250 250 251 252 253 252 251 252 255 258 264 267 267 269 270 274 277 281 293 303 308 312 316 320 325 328 332 336 340
252 254 256 256 256 254 252 251 249 247 245 245 245 246 248 249 250 250 251 250 248 249 250 252 255 262 265 265 265 266 272 277 283 292 300 306 310 313 317 322 326 330 335 339
Height
5821 5819 5817 5816 5815 5814 5812 5810 5808 5807 5805 5804 5802 5800 5799 5797 5796 5795 5793 5792 5791 5789 5787 5785 5783 5780 5778 5775 5773 5770 5768 5765 5763 5760 5758 5756 5753 5750 5747 5744 5741 5738 5735 5732
5819 5817 5816 5815 5813 5812 5810 5808 5806 5804 5803 5801 5799 5798 5796 5795 5793 5792 5791 5789 5788 5786 5784 5782 5780 5777 5775 5772 5770 5767 5765 5763 5761 5758 5756 5753 5750 5747 5744 5741 5738 5735 5731 5728
5817 5815 5814 5813 5811 5809 5807 5805 5803 5801 5801 5798 5796 5795 5793 5792 5791 5789 5787 5786 5784 5783 5781 5779 5777 5775 5772 5770 5767 5765 5763 5761 5759 5756 5754 5751 5748 5745 5742 5738 5735 5732 5728 5725
5814 5814 5812 5813 5808 5806 5804 5802 5800 5799 5797 5795 5793 5792 5790 5789 5788 5786 5785 5783 5781 5780 5778 5776 5773 5771 5769 5767 5765 5763 5761 5759 5756 5754 5751 5748 5746 5743 5739 5736 5732 5729 5725 5722
5811 5809 5808 5808 5806 5803 5802 5800 5798 5796 5794 5792 5790 5789 5788 5786 5785 5783 5782 5780 5779 5777 5775 5773 5771 5768 5766 5764 5762 5760 5758 5756 5754 5752 5749 5747 5744 5741 5737 5734 5731 5727 5723 5719
5807 5805 5804 5805 5803 5800 5799 5797 5795 5793 5791 5789 5787 5787 5786 5783 5782 5780 5778 5777 5776 5774 5772 5770 5768 5766 5764 5762 5760 5758 5756 5754 5752 5750 5748 5745 5742 5739 5736 5732 5729 5725 5721 5716
5803 5802 5801 5800 5799 5797 5797 5795 5793 5790 5788 5786 5785 5784 5782 5780 5778 5777 5775 5774 5773 5771 5769 5767 5765 5763 5761 5760 5758 5756 5754 5752 5750 5748 5746 5743 5740 5737 5734 5731 5727 5723 5719 5714
5798 5798 5799 5796 5795 5794 5793 5790 5789 5787 5785 5783 5782 5780 5779 5777 5775 5774 5772 5771 5769 5768 5766 5764 5762 5760 5759 5757 5756 5754 5752 5750 5748 5746 5744 5741 5738 5735 5732 5729 5725 5721 5717 5712
5795 5795 5793 5792 5791 5790 5788 5787 5785 5783 5781 5780 5778 5777 5776 5774 5772 5771 5769 5768 5766 5764 5763 5761 5759 5758 5756 5755 5753 5752 5750 5748 5746 5744 5742 5739 5737 5734 5731 5727 5723 5719 5714 5709
5790 5789 5788 5787 5786 5786 5785 5783 5781 5780 5778 5777 5775 5774 5772 5771 5770 5768 5766 5764 5763 5761 5759 5758 5756 5755 5754 5752 5751 5749 5748 5746 5744 5742 5740 5737 5735 5732 5729 5725 5721 5717 5712 5707
5785 5784 5783 5783 5782 5781 5780 5779 5777 5776 5775 5773 5772 5770 5769 5768 5766 5764 5763 5761 5759 5758 5756 5755 5753 5752 5751 5750 5748 5747 5745 5743 5741 5739 5738 5735 5733 5730 5727 5723 5719 5715 5710 5705
5780 5780 5779 5779 5778 5777 5775 5774 5773 5772 5771 5770 5768 5767 5765 5764 5762 5761 5759 5758 5756 5754 5753 5752 5750 5749 5748 5747 5745 5744 5742 5740 5739 5737 5735 5733 5730 5727 5724 5721 5717 5712 5708 5703
5774 5773 5773 5773 5773 5772 5771 5770 5769 5768 5767 5766 5764 5763 5761 5760 5759 5757 5756 5754 5752 5751 5749 5748 5747 5746 5745 5744 5743 5741 5740 5738 5736 5734 5732 5730 5728 5725 5722 5718 5714 5710 5705 5701
5767 5767 5767 5767 5767 5766 5765 5764 5764 5763 5762 5762 5761 5759 5758 5756 5755 5754 5752 5750 5749 5747 5746 5745 5744 5743 5742 5741 5740 5738 5737 5735 5734 5732 5730 5728 5725 5722 5719 5716 5712 5708 5703 5699
5761 5761 5761 5761 5760 5760 5759 5759 5758 5758 5757 5757 5756 5755 5753 5752 5751 5749 5748 5746 5745 5744 5743 5741 5741 5740 5739 5738 5737 5736 5734 5732 5731 5729 5727 5725 5722 5719 5716 5713 5709 5706 5702 5697
5754 5754 5754 5754 5754 5754 5753 5753 5753 5752 5752 5752 5751 5750 5749 5748 5747 5745 5744 5743 5742 5740 5739 5738 5738 5737 5736 5735 5734 5732 5731 5729 5727 5725 5723 5721 5719 5716 5713 5710 5707 5704 5700 5695
5746 5747 5747 5747 5747 5747 5747 5747 5747 5746 5746 5746 5746 5745 5744 5743 5742 5741 5740 5739 5738 5737 5736 5735 5735 5734 5733 5732 5730 5729 5727 5725 5723 5722 5720 5718 5715 5713 5711 5708 5705 5702 5698 5693
5738 5739 5739 5739 5739 5739 5740 5740 5740 5740 5739 5740 5740 5739 5739 5738 5737 5736 5735 5734 5734 5733 5733 5732 5731 5731 5730 5728 5727 5725 5724 5722 5720 5718 5717 5715 5713 5711 5708 5706 5703 5700 5696 5691
5730 5730 5730 5731 5731 5732 5732 5732 5733 5733 5733 5733 5733 5733 5733 5732 5732 5731 5731 5730 5730 5729 5729 5728 5728 5727 5726 5725 5724 5722 5721 5719 5717 5715 5714 5712 5710 5708 5706 5703 5700 5697 5693 5689
5721 5721 5722 5722 5723 5724 5724 5725 5726 5726 5726 5726 5727 5727 5727 5727 5727 5726 5726 5726 5725 5725 5725 5724 5724 5723 5722 5721 5720 5719 5718 5716 5714 5712 5711 5709 5707 5705 5703 5700 5697 5694 5691 5687
5712 5713 5713 5714 5715 5715 5716 5717 5718 5719 5719 5720 5720 5721 5721 5721 5721 5721 5721 5721 5721 5720 5720 5720 5719 5719 5718 5718 5717 5716 5715 5713 5712 5710 5708 5706 5704 5702 5700 5697 5695 5691 5688 5684
5703 5704 5705 5706 5707 5708 5708 5709 5711 5711 5712 5713 5714 5714 5715 5715 5715 5715 5716 5716 5716 5716 5716 5716 5715 5715 5715 5714 5713 5712 5711 5710 5709 5707 5705 5704 5702 5699 5697 5694 5692 5689 5686 5682
5694 5696 5697 5698 5699 5700 5701 5702 5703 5704 5705 5706 5707 5708 5708 5709 5709 5710 5711 5711 5711 5711 5711 5711 5711 5711 5711 5710 5709 5709 5708 5707 5706 5704 5703 5701 5699 5697 5694 5692 5689 5686 5683 5679
5686 5687 5688 5689 5691 5692 5693 5695 5696 5697 5698 5699 5700 5701 5702 5703 5704 5705 5705 5706 5706 5707 5707 5707 5707 5707 5707 5706 5705 5705 5704 5703 5702 5701 5700 5698 5696 5694 5691 5689 5686 5683 5680 5677
5677 5679 5680 5681 5683 5684 5685 5687 5688 5690 5692 5693 5694 5695 5696 5697 5698 5699 5700 5701 5701 5702 5702 5703 5703 5703 5702 5702 5702 5701 5700 5699 5699 5698 5696 5695 5693 5691 5688 5686 5683 5680 5677 5674
5669 5671 5672 5674 5675 5676 5678 5679 5681 5683 5685 5686 5687 5689 5690 5691 5692 5693 5694 5695 5696 5697 5697 5698 5698 5698 5698 5698 5698 5697 5696 5695 5695 5694 5693 5691 5689 5687 5685 5682 5680 5677 5674 5672
5661 5663 5664 5666 5667 5669 5670 5672 5674 5676 5677 5679 5681 5683 5684 5685 5686 5687 5688 5689 5691 5691 5692 5693 5694 5694 5694 5694 5693 5693 5692 5691 5691 5690 5689 5687 5685 5683 5681 5679 5677 5674 5671 5669